Haines, AK

11:36 AM AKDT on July 22, 2017 (GMT -0800)
Haines

Weather History for PAHN - February, 2012

Change the Weather History Date:

Sunday, February 19, 2012

  Actual Average Record
Temperature  
Mean Temperature 30 °F -  
Max Temperature 33 °F 32 °F 48 °F (1989)
Min Temperature 26 °F 23 °F 1 °F (1976)
Degree Days  
Heating Degree Days 36    
Moisture  
Dew Point 26 °F    
Average Humidity 90    
Maximum Humidity 100    
Minimum Humidity 75    
Precipitation  
Precipitation 0.01 in - - ()
Sea Level Pressure  
Sea Level Pressure 29.73 in    
Wind  
Wind Speed 11 mph (WNW)    
Max Wind Speed 13 mph    
Max Gust Speed -    
Visibility 6 miles    
Events Snow    
Averages and records for this station are not official NWS values.
T = Trace of Precipitation, MM = Missing Value Source: NWS Daily Summary

Daily Weather History Graph

Daily Weather History Graph

Search for Another Location

Airport or City:

Trip Planner

Search our weather history database for the weather conditions in past years. The results will help you decide how hot, cold, wet, or windy it might be!

Date:

Astronomy

Feb. 19, 2012 Rise Set
Actual Time 7:27 AM AKST 5:05 PM AKST
Civil Twilight 6:45 AM AKST 5:47 PM AKST
Nautical Twilight 5:58 AM AKST 6:34 PM AKST
Astronomical Twilight 5:11 AM AKST 7:22 PM AKST
Moon 6:15 AM AKST (2/19) 2:56 PM AKST (2/19)
Length of Visible Light 11h 02m
Length of Day
9h 37m
Waning Crescent, 5% of the Moon is Illuminated
Feb 19
Waning Crescent
Feb 21
New
Feb 29
First Quarter
Mar 8
Full
Mar 14
Last Quarter

Hourly Weather History & Observations

Time (AKST) Temp. Windchill Dew Point Humidity Pressure Visibility Wind Dir Wind Speed Gust Speed Precip Events Conditions
12:09 AM 26.6 °F 15.7 °F 26.6 °F 100% 29.74 in 2.5 mi WNW 12.7 mph - 0.00 in Snow Light Snow
12:16 AM 26.6 °F 16.8 °F 24.8 °F 93% 29.74 in 3.0 mi WNW 10.4 mph - 0.00 in Snow Light Snow
12:28 AM 28.4 °F 18.5 °F 26.6 °F 93% 29.74 in 2.0 mi WNW 11.5 mph - 0.00 in Snow Light Snow
12:54 AM 27.0 °F 16.7 °F 26.1 °F 96% 29.75 in 2.5 mi WNW 11.5 mph - 0.00 in Snow Light Snow
1:36 AM 26.6 °F 16.8 °F 26.6 °F 100% 29.74 in 1.5 mi WNW 10.4 mph - 0.00 in Snow Light Snow
1:51 AM 26.6 °F 16.8 °F 26.6 °F 100% 29.74 in 2.0 mi WNW 10.4 mph - 0.00 in Snow Light Snow
1:54 AM 27.0 °F 16.7 °F 25.0 °F 92% 29.75 in 2.0 mi WNW 11.5 mph - 0.00 in Snow Light Snow
2:01 AM 26.6 °F 16.2 °F 24.8 °F 93% 29.74 in 1.2 mi WNW 11.5 mph - 0.01 in Snow Light Snow
2:42 AM 26.6 °F 15.7 °F 24.8 °F 93% 29.74 in 1.5 mi WNW 12.7 mph - 0.01 in Snow Light Snow
2:54 AM 27.0 °F 16.1 °F 25.0 °F 92% 29.75 in 1.8 mi WNW 12.7 mph - 0.01 in Snow Light Snow
2:56 AM 26.6 °F 16.2 °F 24.8 °F 93% 29.74 in 2.0 mi WNW 11.5 mph - 0.00 in Snow Light Snow
3:54 AM 27.0 °F 17.3 °F 25.0 °F 92% 29.76 in 2.0 mi WNW 10.4 mph - 0.00 in Snow Light Snow
4:03 AM 26.6 °F 16.2 °F 24.8 °F 93% 29.75 in 1.8 mi WNW 11.5 mph - 0.00 in Snow Light Snow
4:07 AM 26.6 °F 16.8 °F 24.8 °F 93% 29.75 in 2.5 mi WNW 10.4 mph - 0.00 in Snow Light Snow
4:14 AM 26.6 °F 16.2 °F 24.8 °F 93% 29.75 in 5.0 mi WNW 11.5 mph - 0.00 in Snow Light Snow
4:54 AM 27.0 °F 16.7 °F 25.0 °F 92% 29.76 in 5.0 mi WNW 11.5 mph - 0.00 in Snow Light Snow
5:54 AM 27.0 °F 19.5 °F 26.1 °F 96% 29.74 in 10.0 mi WNW 6.9 mph - 0.00 in   Overcast
6:12 AM 26.6 °F 16.2 °F 26.6 °F 100% 29.73 in 9.0 mi WNW 11.5 mph - 0.00 in Snow Light Snow
6:54 AM 27.0 °F 16.1 °F 25.0 °F 92% 29.73 in 2.5 mi WNW 12.7 mph - 0.00 in Snow Light Snow
7:06 AM 26.6 °F 15.7 °F 24.8 °F 93% 29.73 in 5.0 mi WNW 12.7 mph - 0.00 in Snow Light Snow
7:21 AM 26.6 °F 16.2 °F 24.8 °F 93% 29.73 in 4.0 mi WNW 11.5 mph - 0.00 in Snow Light Snow
7:54 AM 27.0 °F 16.7 °F 25.0 °F 92% 29.74 in 10.0 mi WNW 11.5 mph - 0.00 in   Overcast
8:54 AM 27.0 °F 16.1 °F 25.0 °F 92% 29.75 in 4.0 mi WNW 12.7 mph - 0.00 in Snow Light Snow
9:24 AM 28.4 °F 19.1 °F 26.6 °F 93% 29.74 in 4.0 mi WNW 10.4 mph - 0.00 in Snow Light Snow
9:35 AM 28.4 °F 19.1 °F 26.6 °F 93% 29.74 in 1.8 mi NW 10.4 mph - 0.00 in Snow Light Snow
9:52 AM 28.4 °F 19.1 °F 26.6 °F 93% 29.74 in 2.0 mi WNW 10.4 mph - 0.00 in Snow Light Snow
9:53 AM 28.0 °F 18.6 °F 25.0 °F 88% 29.75 in 2.0 mi WNW 10.4 mph - 0.00 in Snow Light Snow
10:01 AM 28.4 °F 19.1 °F 24.8 °F 86% 29.74 in 7.0 mi WNW 10.4 mph - 0.00 in Snow Light Snow
10:54 AM 28.9 °F 19.2 °F 25.0 °F 85% 29.75 in 5.0 mi NW 11.5 mph - 0.00 in Snow Light Snow
11:54 AM 30.0 °F 20.5 °F 26.1 °F 85% 29.75 in 10.0 mi WNW 11.5 mph - 0.00 in   Overcast
12:54 PM 30.9 °F 21.7 °F 26.1 °F 82% 29.75 in 10.0 mi WNW 11.5 mph - N/A   Overcast
1:54 PM 32.0 °F 23.0 °F 26.1 °F 79% 29.74 in 10.0 mi WNW 11.5 mph - N/A   Overcast
2:54 PM 33.1 °F 26.1 °F 27.0 °F 78% 29.73 in 10.0 mi WNW 8.1 mph - N/A   Overcast
3:54 PM 33.1 °F 25.5 °F 26.1 °F 75% 29.73 in 10.0 mi WNW 9.2 mph - N/A   Overcast
4:54 PM 32.0 °F 24.2 °F 26.1 °F 79% 29.73 in 10.0 mi WNW 9.2 mph - N/A   Overcast
5:54 PM 32.0 °F 25.6 °F 26.1 °F 79% 29.72 in 10.0 mi WNW 6.9 mph - N/A   Overcast
6:54 PM 32.0 °F 24.8 °F 27.0 °F 82% 29.70 in 10.0 mi WNW 8.1 mph - N/A   Overcast
7:54 PM 32.0 °F 23.6 °F 27.0 °F 82% 29.70 in 10.0 mi NW 10.4 mph - N/A   Overcast
8:54 PM 30.9 °F 23.5 °F 27.0 °F 85% 29.69 in 10.0 mi WNW 8.1 mph - N/A   Overcast
9:54 PM 30.0 °F 22.4 °F 27.0 °F 88% 29.67 in 10.0 mi WNW 8.1 mph - N/A   Overcast
10:54 PM 30.0 °F 21.1 °F 26.1 °F 85% 29.66 in 10.0 mi WNW 10.4 mph - N/A   Overcast
11:54 PM 28.9 °F 21.1 °F 26.1 °F 89% 29.65 in 10.0 mi WNW 8.1 mph - N/A   Overcast